Вернуться в каталог

STARLINK-37925

АктивенСвязьVLEO
NORAD 69962·PAYLOAD·🇺🇸 United States

Запущен Jul 9, 2026 с Cape Canaveral Space Force Station

Loading…

Ближайшие Пролёты (ближайшие 24 часа)

TLE

СвежийSource: CelesTrak SupGP

Эпоха: Sep 14, 2026, 23:26 UTC

1 69962C 26157V   26257.97687500 -.00005565  00000+0 -16446-3 0  2570
2 69962  53.1584 359.6469 0001127  88.1874 260.8677 15.34387477    15

Отслеживайте STARLINK-37925 в реальном времени с AllMySat

Download on the App Store